Погода в Кутаиси

Погода в Кутаиси : погода сейчас, прогноз погоды и архив. Всё, что Вы хотите узнать о погоде в Кутаиси!

Поиск расширенной информации на нашем сайте:

Другие новости

Новости СМИ2

Главная страница сайта

Новости сайта

03.07.2017

Напоминаем, что на нашем специализированном сайте Метеоцентр.Азия вы можете получить высокодетализированные автоматические прогнозы погоды по пунктам России, СНГ и мира в авиационном формате (включающие направление и скорость ветра, видимость, явления погоды, количество и форму облачности, нижнюю и верхнюю границу облачности).


Погода в Кутаиси - сегодня

Время (UTC), дата Ветер
(°,м/с) 
Видим.   Явления Облачность Т
(°С)
Тd
(°С)
f(%) Тe
(°С)
Pmin
(гПа)
dP
(гПа)
Po
(мм)
O2
(г/м3)
Тmin Tmax R s Состояние
почвы
12 20.09.17 120 (ЮВ) 20000 м    ясно 
+36.6 +16.1 30 +47  1008.5  -2  747  262           
15 20.09.17 270 (З) 20000 м    ясно 
+29 +23.4 72 +56  1008.8  747  266    +36.8       
21 20.09.17 тихо ()   10 км    ясно 
+20.4 +19.5 95 +38  1013.6  2.3  750  277           
00 21.09.17 тихо ()   10 км    ясно 
+18.4 +17.7 96 +32  1013.9  0.3  750  279           
03 21.09.17 090 (В) 20000 м    3/0 
+23.8 +12.7 50 +29  1010  -3.7  748  275           
09 21.09.17 090 (В) 10  20000 м    ясно 
+35.2 +15.5 31 +45  1006.6  -1.5  746  263           
12 21.09.17 120 (ЮВ) 20000 м    ясно 
+36.4 +16.9 32 +49  1004.5  -1.9  744  261           
15 21.09.17 270 (З) 20000 м    3/0 средняя 
[Ac trans]
+25.8 +21 75 +47  1007  1.9  746  269    +37.2       
21 21.09.17 360 (С) 10 км    6/0 средняя 
[Ac trans]
+22 +20 88 +41  1008  -0.9  746  273           
00 22.09.17 090 (В) 10  10 км    6/0 средняя 
[Ac trans]
+30.4 +14.1 37 +38  1006.1  -1.6  745  267           
03 22.09.17 090 (В) 10  20000 м    3/0 средняя 
[Ac trans]
+28.8 +13.3 39 +35  1006.4  0.2  745  269           
09 22.09.17 090 (В) 10  20000 м    3/0 средняя 
[Ac trans]
+35 +16.5 33 +47  1005.4  -0.9  745  262           
12 22.09.17 270 (З) 12  20000 м    6/0 средняя 
[Ac trans]
+28 +20.1 62 +47  1009.3  3.6  747  268           
15 22.09.17 270 (З) 20000 м    10/6 1000 м средняя 
[Sc|As op]
+25.2 +21 78 +46  1012.6  3.2  750  271    +36.2       
21 22.09.17 тихо ()   10 км    6/3 1000 м средняя 
[Sc|Ac trans]
+22.2 +20.7 91 +42  1014.6  -0.2  751  275           
00 23.09.17 090 (В) 10 км    4/3 1000 м средняя 
[Sc|Ac trans]
+21 +19.5 91 +38  1014.6  -0.1  751  276           
03 23.09.17 090 (В) 20000 м    6/4 1000 м средняя 
[Sc|Ac trans]
+20.6 +18.4 87 +36  1013.5  -1.1  750  277           
06 23.09.17 тихо ()   20000 м    8/3 1500 м средняя 
[Sc|Ac trans]
+23.8 +19.5 77 +41  1012.8  -0.5  750  273  +20.6         
09 23.09.17 тихо ()   20000 м    8/3 1500 м средняя 
[Sc|Ac trans]
+27 +19.3 63 +44  1011.9  -0.8  749  270           
12 23.09.17 270 (З) 20000 м    8/3 1500 м средняя 
[Sc|Ac trans]
+28.6 +19.4 58 +46  1011.7  -0.1  749  269           
21 23.09.17 320 (СЗ) 10 км  гроза, ливневой дождь  10/8 600 м средняя 
[Sc|As op]
+20 +19 94 +36  1019.2  2.7  754  279           
00 24.09.17 270 (З) 10 км  гроза, ливневой дождь  10/8 600 м средняя 
[Sc|As op]
+20.2 +19 93 +36  1019.8  0.6  755  279           
03 24.09.17 090 (В) 20000 м  {гроза, ливн. осадки}  10/6 1000 м средняя 
[Sc|As op]
+20 +18.7 92 +36  1018.9  -0.9  754  279         
09 24.09.17 030 (СВ) 20000 м    9/0 средняя 
[Cu med, cong|Ac trans]
+23.2 +17.7 71 +37  1019.8  755  276           
12 24.09.17 270 (З) 20000 м    8/4 1000 м средняя 
[Cu med, cong|Ac trans]
+25.2 +18.2 65 +40  1019.4  -0.3  755  274           
Время (UTC), дата Ветер
(°,м/с) 
Видим.   Явления Облачность Т
(°С)
Тd
(°С)
f(%) Тe
(°С)
Pmin
(гПа)
dP
(гПа)
Po
(мм)
O2
(г/м3)
Тmin Tmax R s Состояние
почвы

Для получения пояснительной информации подведите курсор к названию столбца.

ПОГОДА в Кутаиси - архив

Всё, что Вы хотите узнать о погоде в Кутаиси - удобно и подробно!

Выберите нужную дату (начиная с 1 января 2015* года) и нажмите кнопку "Найти".
Будут отображены архивные сводки погоды по пункту Кутаиси, начиная с указанной даты.


Отображать данные в формате CSV (для использования в таблицах Excel)


Внимание! Наш архив погоды предназначен исключительно для личного некоммерческого использования в познавательных целях. Если Вам необходимы официальные справки о состоянии погоды (для производственных, юридических, коммерческих и т.п. целей), обращайтесь в органы Росгидромета.

*Примечание: данная дата относится к архиву по метеостанциям СССР (Россия, СНГ, Балтия).
Архив по метеостанциям Зарубежной Европы и Азии (кроме Китая) хранится 10 дней, по другим регионам земного шара (Китай, Африка, Америка, Австралия, Океания) - 1 день.

Кутаиси - район местоположения метеостанции


Название, широта, долгота, высота метеостанции:
Кутаиси 42.3°ш. 42.6°д. 116 м над ур. моря [Грузия]

Дополнительная информация

В oтличие oт бoльшинства пoгoдных сайтoв мы публикуем пoдрoбную метеoинфoрмацию в детальнoм прoфессиoнальнoм фoрмате.

Характеристики температуры и влажнoсти вoздуха измеряются на высoте 2 м в тени вдали oт зданий и деревьев.
Скoрoсть ветра измеряется на высoте 10 м (на урoвне рoста челoвека скoрoсть ветра ниже в 1.5-2 раза). Если метеoстанция нахoдится в гoрoде или в лесу, тo скoрoсть ветра занижена на 2-4 м/с пo сравнению с oткрытым местoм. Скoрoсть ветра над акватoриями крупных рек и oзёр, а также на вершинах хoлмoв на 2-5 м/с выше, чем в oбычных услoвиях.
Атмoсфернoе давление в разных тoчках местнoсти мoжет значительнo oтличаться oт давления на метеoстанции, в зависимoсти oт услoвий рельефа (при пoдъёме на 10 м давление пoнижается примернo на 1 мм рт.ст.).